Location: Kitchener
(43.4500°N, 80.5000°W)
Time: 06:53:20
(UTC-05:00)

Tiangong 2 - Visible Passes

Search period start: 19 February 2019 00:00
Search period end: 01 March 2019 00:00
Orbit: 381 x 390 km, 42.8° (Epoch: 19 February)

Date Brightness Start Highest point End Pass type
(mag) Time Alt. Az. Time Alt. Az. Time Alt. Az.
19 Feb 2.5 18:47:31 10° W 18:50:26 34° SSW 18:53:20 10° SE visible
20 Feb 3.9 19:25:49 10° WSW 19:27:35 14° SSW 19:29:21 10° S visible
21 Feb 3.4 18:26:00 10° W 18:28:33 22° SSW 18:31:06 10° SSE visible
